{"data":{"norad_id":58880,"epoch":"2026-09-20T02:35:55.837824Z","epoch_age_seconds":186328,"freshness":"STALE","line1":"1 58880U 24020E   26263.10828516  .00001789  00000+0  64067-4 0  9998","line2":"2 58880  53.1610 123.2209 0001123 102.9450 257.1678 15.34399338148067","mean_motion":15.34399338,"eccentricity":0.0001123,"inclination_deg":53.161,"raan_deg":123.2209,"arg_perigee_deg":102.945,"mean_anomaly_deg":257.1678,"bstar":6.4067e-5,"rev_number":14806,"period_min":93.847798570935,"perigee_km":461.93698123139,"apogee_km":463.47343439126,"semimajor_km":6840.8422078113,"source":"CELESTRAK","updated_at":"2026-09-21T09:00:33.992573Z"}}